SCP
1 1 1 1 2 2 3 3 3 3 3 2 2 2 2 2 2 2 2 2 1 1 1 1 1 1 1 1 1 1 1 1 1 1 1 0 0 0 0 0 0 0 0
1 1 1 1 2 2 2 3 3 3 3 2 2 2 2 2 2 2 2 2 2 1 1 1 1 1 1 1 1 1 1 1 1 1 1 0 0 0 0 0 0 0 0
1 1 1 1 1 2 2 2 3 3 3 3 2 2 2 2 2 2 2 2 2 2 1 1 1 1 1 1 1 1 1 1 1 1 1 1 0 0 0 0 0 0 0
1 1 1 1 1 1 2 2 3 3 3 3 2 2 2 2 2 2 2 2 2 2 2 1 1 1 1 1 1 1 1 1 1 1 1 1 1 0 0 0 0 0 0
1 1 1 1 1 1 2 2 3 3 3 3 2 2 2 2 2 2 2 2 2 2 1 1 1 1 1 1 1 1 1 1 1 1 1 1 1 0 0 0 0 0 0
1 1 1 1 1 2 2 2 3 3 3 3 2 2 2 2 2 2 2 2 2 1 1 1 1 1 1 1 1 1 1 1 1 1 1 1 1 0 0 0 0 0 0
1 1 1 1 2 2 2 3 3 3 2 2 2 2 2 2 2 2 2 2 1 1 1 1 1 1 1 1 1 1 1 1 1 1 1 1 1 0 0 0 0 0 0
1 1 1 2 2 2 2 2 2 2 2 2 2 2 2 2 2 2 2 2 1 1 1 1 1 1 1 1 1 1 1 1 1 1 1 1 1 0 0 0 0 0 0
1 1 1 2 2 2 2 2 2 2 2 2 1 2 2 2 2 2 2 2 1 1 1 1 1 1 1 1 1 1 1 1 1 1 1 1 0 0 0 0 0 0 0
1 1 1 1 2 2 2 2 2 2 2 1 1 1 1 2 2 2 2 2 2 1 1 1 1 1 1 1 1 1 1 1 1 1 1 0 0 0 0 0 0 0 0
1 1 1 1 1 1 1 2 2 1 1 1 1 1 1 1 1 2 2 2 1 1 1 1 1 1 1 1 1 1 1 1 1 1 0 0 0 0 0 0 0 0 0
0 1 1 1 1 1 1 2 2 1 1 1 1 1 1 1 1 1 1 1 1 1 1 1 1 1 1 1 1 1 1 0 0 0 0 0 0 0 0 0 0 0 0
1 1 1 1 1 1 1 2 2 1 1 1 1 1 1 1 1 1 1 1 1 1 1 1 1 1 1 1 1 1 0 0 0 0 0 0 0 0 0 0 0 0 0
1 1 1 1 2 2 2 2 2 1 1 1 1 1 1 1 1 1 1 1 1 1 1 1 1 1 1 1 0 0 0 0 0 0 0 0 0 0 0 0 0 0 0
1 1 1 2 2 2 2 2 2 2 1 1 1 1 1 1 1 1 1 1 1 1 1 1 1 1 1 0 0 0 0 0 0 0 0 0 0 0 0 0 0 0 0
1 1 1 2 2 2 2 2 2 2 1 1 1 1 1 1 1 1 1 1 1 1 1 1 1 1 0 0 0 0 0 0 0 0 0 0 0 0 0 0 0 0 0
1 1 1 2 2 2 2 2 2 1 1 1 1 1 1 1 1 1 1 1 1 1 1 0 0 0 0 0 0 0 0 0 0 0 0 0 0 0 0 0 0 0 0
1 1 2 2 2 2 2 2 1 1 1 1 1 1 1 1 1 1 1 1 1 1 0 0 0 0 0 0 0 0 0 0 0 0 0 0 0 0 0 0 0 0 0
1 1 1 1 2 2 2 1 1 1 1 1 1 1 1 1 1 1 1 1 1 1 1 1 1 1 0 0 0 0 0 0 0 0 0 0 0 0 0 0 0 0 0
1 1 1 1 1 1 1 1 1 1 1 1 1 1 1 1 1 1 1 1 1 1 1 1 1 1 0 0 0 0 0 0 0 0 0 0 0 0 0 0 0 0 0
1 1 1 1 1 1 1 1 1 1 1 1 1 1 1 1 1 1 1 1 1 1 1 1 1 1 0 0 0 0 0 0 0 0 0 0 0 0 0 0 0 0 0
1 1 1 1 1 1 1 1 1 1 1 1 1 1 1 1 1 1 1 1 1 1 1 1 0 0 0 0 0 0 0 0 0 0 0 0 0 0 0 0 0 0 0
1 1 1 1 1 1 1 1 1 1 1 1 1 1 1 1 1 1 1 1 0 0 0 0 0 0 0 0 0 0 0 0 0 0 0 0 0 0 0 0 0 0 0
1 1 1 1 1 1 1 1 1 1 1 1 1 1 1 1 1 0 0 0 0 0 0 0 0 0 0 0 0 0 0 0 0 0 0 0 0 0 0 0 0 0 0
1 1 1 1 1 1 1 1 1 1 1 1 1 1 1 1 0 0 0 0 0 0 0 0 0 0 0 0 0 0 0 0 0 0 0 0 0 0 0 0 0 0 0
0 1 1 1 1 0 0 1 1 1 1 1 1 1 0 0 0 0 0 0 0 0 0 0 0 0 0 0 0 0 0 0 0 0 0 0 0 0 0 0 0 0 0
Wind_Speed
9 8 9 9 9 8 8 8 7 6 5 4 4 4 4 4 3 3 5 5 4 4 4 2 3 3 2 2 3 2 3 3 2 2 2 2 3 3 3 3 3 4 4
9 9 9 9 9 9 8 8 7 7 6 4 3 3 3 3 3 3 4 5 5 4 4 3 3 3 2 2 2 2 2 2 2 1 1 1 1 3 5 3 4 4 3
10 9 8 8 8 8 8 8 8 8 7 5 3 3 2 2 3 4 4 5 4 4 3 4 3 3 3 2 2 3 3 2 2 2 1 1 1 1 1 3 3 4 3
8 9 10 8 8 7 7 7 7 8 7 6 5 6 5 4 4 3 4 5 5 5 5 4 4 3 2 3 4 3 2 3 2 2 2 2 1 0 1 2 2 3 4
7 7 8 9 8 7 6 6 7 7 7 7 6 5 5 4 3 3 4 5 5 5 5 4 4 4 3 3 3 2 2 2 3 2 2 2 2 2 2 2 1 1 2
7 7 7 8 7 7 6 5 6 6 7 7 7 6 6 5 4 4 4 4 4 4 4 4 3 3 3 3 3 2 3 3 3 2 2 2 2 2 2 2 2 2 2
5 6 7 7 7 7 6 6 5 5 5 5 6 6 6 6 5 5 4 4 3 3 4 4 3 3 3 3 3 3 4 4 3 3 3 2 3 2 2 2 2 2 2
4 5 6 6 7 7 6 6 5 5 5 5 5 4 5 4 4 4 3 3 2 3 4 4 4 4 4 4 3 3 4 3 3 4 3 3 3 2 1 2 2 2 2
4 4 5 6 6 6 6 5 5 4 4 4 5 5 5 4 3 3 3 3 2 2 3 3 3 3 3 4 3 3 3 3 3 3 3 3 3 2 2 2 2 3 3
4 4 4 5 5 6 5 5 5 4 4 4 4 4 4 3 3 3 3 2 2 1 2 3 3 3 3 3 3 3 3 3 3 3 3 3 3 2 2 2 3 3 3
4 4 4 5 5 5 5 5 4 4 3 4 4 3 4 4 3 2 3 2 2 2 2 3 3 3 3 3 3 4 3 4 4 4 4 4 4 2 2 2 2 3 3
3 4 4 4 4 4 4 4 4 4 3 3 3 3 3 3 3 3 2 2 2 2 2 3 3 4 3 3 3 4 4 4 4 4 3 3 3 3 2 2 3 3 3
3 3 3 3 3 3 4 4 3 3 3 2 2 2 2 2 2 2 2 2 2 2 3 2 3 4 3 3 4 4 4 4 4 3 3 3 3 3 2 3 3 3 3
3 3 3 3 2 3 3 3 3 2 2 2 2 2 2 2 2 2 2 2 2 3 3 3 3 3 3 3 3 3 3 3 3 3 4 4 4 3 4 3 3 3 3
3 2 2 2 3 2 2 2 2 2 2 2 2 1 2 2 2 2 2 2 2 3 2 3 3 3 2 3 2 3 4 3 3 4 4 4 4 4 4 4 3 3 3
2 2 2 2 3 2 1 1 2 2 2 2 1 1 2 2 2 3 3 2 2 2 3 3 3 3 3 2 2 2 3 3 3 4 4 4 5 5 6 6 6 5 4
2 2 2 2 2 1 1 1 2 2 2 2 2 2 2 2 3 3 3 2 2 2 3 3 3 3 3 3 3 3 4 4 4 4 3 4 3 4 4 5 7 7 8
3 3 2 2 1 2 2 1 2 2 2 2 2 3 3 3 2 2 2 2 2 2 3 4 3 3 4 4 3 4 5 5 4 3 4 4 3 3 3 4 4 4 5
3 2 2 2 1 1 1 1 1 2 2 3 3 3 3 3 2 2 2 2 2 3 4 4 4 4 4 4 4 4 4 4 4 4 4 4 3 3 3 3 3 4 4
3 3 2 2 2 1 1 1 1 1 2 2 2 2 2 2 3 3 3 2 3 4 4 4 4 4 4 5 6 5 3 3 3 3 3 3 3 4 4 4 3 4 4
2 2 2 1 1 1 0 0 0 1 1 1 1 1 1 1 2 2 2 2 3 4 4 4 4 4 4 5 7 6 3 3 3 3 3 2 4 4 5 5 4 5 4
2 2 1 1 2 1 1 1 1 2 1 1 1 0 1 2 2 1 2 3 3 4 5 4 3 3 3 4 5 7 7 6 4 4 3 2 5 5 6 6 6 5 4
2 2 1 1 2 2 1 1 1 2 2 1 1 1 1 2 1 2 3 3 3 3 3 2 2 2 1 2 5 6 7 8 5 4 4 4 5 6 6 8 7 5 4
2 2 2 2 2 2 2 1 1 1 1 2 1 1 2 2 1 1 2 2 2 2 2 2 2 2 1 0 0 1 2 3 3 4 4 5 6 6 5 5 5 5 5
2 2 2 1 1 2 3 3 3 2 2 2 1 2 3 2 2 2 1 1 1 1 2 2 2 2 2 1 2 2 2 2 2 2 3 3 3 4 4 4 4 4 4
2 2 2 1 1 1 2 3 3 3 2 2 2 2 2 2 2 1 1 1 1 1 2 2 2 2 2 2 2 3 4 4 2 2 3 4 4 4 4 4 4 4 4
Wind_Direction
175 165 166 158 151 150 157 164 167 160 159 173 180 187 192 191 191 186 167 168 185 194 195 192 187 201 199 205 206 204 220 230 222 253 267 237 222 213 213 218 208 204 209
171 167 165 163 158 163 168 168 169 162 170 184 185 190 187 187 182 176 155 172 186 197 195 184 199 196 204 213 220 215 230 245 208 196 244 267 240 234 221 206 202 205 209
173 161 166 163 160 168 175 175 169 167 175 176 180 193 174 180 181 171 168 177 184 194 204 190 202 204 198 208 219 216 216 233 234 204 209 239 242 248 228 221 204 191 200
163 161 165 163 166 169 170 165 166 169 172 175 187 193 193 195 191 179 172 173 186 191 199 199 201 205 211 204 221 201 219 223 232 232 226 238 276 259 294 276 222 206 207
163 162 164 157 166 159 159 167 166 169 168 179 190 196 202 198 184 176 167 177 187 193 198 197 200 202 215 207 226 202 210 220 231 233 227 238 241 229 228 258 259 243 224
157 154 157 156 159 153 152 146 153 167 174 185 190 196 199 195 190 184 181 186 186 190 196 200 194 197 206 207 217 210 218 223 229 248 253 234 225 231 227 242 249 246 240
149 146 156 161 155 148 143 138 141 155 171 184 192 196 198 198 196 191 188 188 190 190 191 197 182 195 206 210 208 212 224 221 222 230 244 245 245 246 232 241 251 261 260
139 148 153 146 147 143 137 139 149 157 168 178 183 182 187 196 191 187 186 189 199 197 182 188 188 198 200 213 207 219 222 215 216 229 231 244 252 247 231 232 240 260 259
136 149 144 142 142 141 138 149 154 158 170 183 180 178 178 184 178 169 182 183 201 201 162 178 194 213 217 216 205 221 222 211 212 226 222 230 249 242 237 236 233 238 254
141 147 140 136 142 136 135 147 155 168 175 176 181 183 170 175 183 181 183 174 173 195 174 188 204 208 218 225 214 228 219 206 213 219 217 228 247 252 246 241 245 247 249
135 133 125 132 138 138 145 148 151 161 169 175 175 168 163 170 178 178 190 189 182 188 189 195 209 212 216 222 220 233 223 214 218 226 221 222 235 245 252 255 254 251 247
127 134 127 129 134 143 147 149 157 168 172 177 167 161 156 162 180 190 187 184 188 198 208 208 216 226 221 218 221 236 235 224 225 229 228 224 234 241 248 254 258 261 256
99 115 113 120 134 142 142 150 158 163 168 171 162 151 160 171 186 198 203 202 200 201 209 217 229 230 222 221 228 232 239 235 232 225 231 233 235 235 242 253 258 262 265
83 77 90 100 107 107 121 147 159 155 161 154 156 159 179 185 198 209 206 205 207 215 216 221 227 238 234 236 241 237 241 239 237 229 229 233 227 227 243 248 249 254 265
85 78 67 83 91 93 106 133 146 144 145 139 147 174 191 188 194 204 202 208 214 220 221 232 236 235 228 242 237 253 248 244 245 241 236 238 226 227 233 246 248 257 257
88 85 66 71 83 83 120 129 127 131 131 146 173 182 186 186 193 198 199 208 214 220 228 239 242 240 243 218 216 248 269 260 247 246 245 238 223 219 220 229 236 235 245
60 66 64 52 86 92 52 101 115 130 152 167 182 177 184 197 205 213 200 202 213 234 249 254 245 231 225 214 223 240 260 259 251 250 245 252 233 216 226 226 232 238 239
59 56 50 51 67 90 91 99 123 151 174 181 192 189 191 195 207 211 198 210 230 242 255 259 252 237 224 213 228 251 247 251 247 240 233 233 232 236 238 239 232 233 234
53 57 41 31 47 85 98 129 173 181 192 200 202 203 203 195 207 212 202 216 228 239 244 250 244 233 212 210 217 234 256 249 249 246 241 227 221 229 225 229 241 248 250
56 55 47 39 31 51 125 186 201 206 219 223 218 217 210 207 222 219 208 221 235 244 247 245 241 235 209 203 207 215 246 261 261 242 230 213 213 222 210 221 237 247 256
59 70 79 62 32 22 107 120 23 318 307 287 248 232 215 234 231 219 215 233 243 251 254 250 242 233 211 204 207 208 229 255 266 260 243 210 194 218 223 229 237 243 252
60 68 79 65 46 29 70 50 7 341 336 321 298 263 231 253 234 213 231 244 251 255 253 249 246 228 205 205 204 212 226 245 260 259 261 230 208 219 227 229 234 240 252
55 54 68 75 50 31 35 34 3 349 341 340 326 302 271 270 251 236 244 247 242 259 265 252 248 243 213 203 200 212 236 245 249 268 283 283 245 238 235 230 227 225 233
57 48 53 63 36 16 18 15 358 350 344 326 311 286 267 263 254 254 262 262 262 266 281 287 291 291 249 142 172 238 250 257 250 265 278 265 246 239 239 234 226 222 230
59 44 31 40 28 10 11 6 10 353 322 305 293 276 269 263 245 240 272 275 274 244 249 274 283 290 299 279 223 233 249 266 290 301 270 256 244 233 229 231 225 221 224
57 40 16 13 31 28 12 14 12 353 325 305 294 289 287 283 272 250 275 334 260 214 222 227 247 273 257 243 236 239 242 239 233 250 262 262 254 243 241 237 231 227 228